Weather History for Missoula, MT

Change the Weather History Date:

Sunday, September 15, 2013

  Actual Average Record
Temperature  
Mean Temperature 74 °F 58 °F  
Max Temperature 88 °F 74 °F 90 °F (1953)
Min Temperature 59 °F 42 °F 22 °F (1970)
Degree Days  
Heating Degree Days 0 8  
Month to date heating degree days 4 83  
Since 1 July heating degree days 12 167  
Cooling Degree Days 9 0  
Month to date cooling degree days 79 13  
Year to date cooling degree days 571 330  
Growing Degree Days 24 (Base 50)    
Moisture  
Dew Point 47 °F    
Average Humidity 41    
Maximum Humidity 57    
Minimum Humidity 24    
Precipitation  
Precipitation 0.00 in 0.04 in 1.30 in (1954)
Month to date precipitation 0.29 0.63  
Year to date precipitation 6.60 10.66  
Snow  
Snow 0.00 in - - ()
Month to date snowfall 0.0  
Year to date snowfall 27.4  
Since 1 July snowfall T  
Snow Depth 0.00 in    
Sea Level Pressure  
Sea Level Pressure 29.87 in    
Wind  
Wind Speed 11 mph (SE)    
Max Wind Speed 28 mph    
Max Gust Speed 36 mph    
Visibility 10 miles    
Events Thunderstorm    
T = Trace of Precipitation, MM = Missing Value Source: NWS Daily Summary

Daily Weather History Graph

Daily Weather History Graph

Search for Another Location

Airport:

Trip Planner

Search our weather history database for the weather conditions in past years. The results will help you decide how hot, cold, wet, or windy it might be!

Date:

Astronomy

Sep. 15, 2013 Rise Set
Actual Time 7:14 AM MDT 7:47 PM MDT
Civil Twilight 6:43 AM MDT 8:17 PM MDT
Nautical Twilight 6:07 AM MDT 8:54 PM MDT
Astronomical Twilight 5:29 AM MDT 9:31 PM MDT
Moon 5:28 PM MDT (9/15) 2:44 AM MDT (9/15)
Length of Visible Light 13h 34m
Length of Day
12h 33m
Waxing Gibbous, 82% of the Moon is Illuminated
Sep 15
Waxing Gibbous
Sep 19
Full
Sep 26
Last Quarter
Oct 4
New
Oct 11
First Quarter

Hourly Weather History & Observations

Time (MDT) Temp. Dew Point Humidity Pressure Visibility Wind Dir Wind Speed Gust Speed Precip Events Conditions
12:53 AM 70.0 °F 45.0 °F 41% 29.99 in 10.0 mi SE 12.7 mph - N/A   Clear
1:53 AM 66.9 °F 45.0 °F 45% 29.99 in 10.0 mi ESE 4.6 mph - N/A   Clear
2:53 AM 64.0 °F 45.0 °F 50% 29.99 in 10.0 mi Calm Calm - N/A   Clear
3:53 AM 64.9 °F 44.1 °F 47% 29.98 in 10.0 mi East 5.8 mph - N/A   Clear
4:53 AM 63.0 °F 45.0 °F 52% 29.99 in 10.0 mi ESE 6.9 mph - N/A   Clear
5:53 AM 63.0 °F 45.0 °F 52% 29.98 in 10.0 mi ESE 8.1 mph - N/A   Overcast
6:53 AM 59.0 °F 45.0 °F 60% 29.99 in 10.0 mi South 5.8 mph - N/A   Clear
7:53 AM 62.1 °F 45.0 °F 53% 29.99 in 10.0 mi SE 9.2 mph - N/A   Clear
8:53 AM 66.0 °F 46.0 °F 48% 29.98 in 10.0 mi ESE 13.8 mph - N/A   Clear
9:53 AM 71.1 °F 46.9 °F 42% 29.96 in 10.0 mi ESE 18.4 mph 23.0 mph N/A   Clear
10:53 AM 73.9 °F 46.9 °F 38% 29.95 in 10.0 mi ESE 17.3 mph - N/A   Clear
11:53 AM 77.0 °F 46.9 °F 34% 29.92 in 10.0 mi SE 15.0 mph 21.9 mph N/A   Clear
12:53 PM 79.0 °F 46.9 °F 32% 29.89 in 10.0 mi ESE 12.7 mph - N/A   Clear
1:53 PM 82.0 °F 48.0 °F 30% 29.86 in 10.0 mi SE 9.2 mph 16.1 mph N/A   Clear
2:53 PM 84.9 °F 48.0 °F 28% 29.83 in 10.0 mi South 11.5 mph - N/A   Clear
3:53 PM 84.9 °F 48.0 °F 28% 29.80 in 10.0 mi SE 5.8 mph - N/A   Clear
4:53 PM 87.1 °F 48.0 °F 26% 29.77 in 10.0 mi ESE 9.2 mph - N/A   Clear
5:53 PM 87.1 °F 46.9 °F 25% 29.75 in 10.0 mi SE 10.4 mph - N/A   Clear
6:53 PM 84.9 °F 48.0 °F 28% 29.74 in 10.0 mi East 12.7 mph - N/A   Partly Cloudy
7:53 PM 82.0 °F 48.0 °F 30% 29.73 in 10.0 mi East 12.7 mph - N/A   Scattered Clouds
8:53 PM 79.0 °F 50.0 °F 36% 29.74 in 10.0 mi SE 12.7 mph 20.7 mph N/A   Overcast
9:53 PM 78.1 °F 50.0 °F 37% 29.76 in 10.0 mi SSE 17.3 mph 31.1 mph N/A Thunderstorm Scattered Clouds
10:11 PM 77.0 °F 50.0 °F 39% 29.83 in 10.0 mi SE 19.6 mph 35.7 mph N/A   Partly Cloudy
10:53 PM 75.0 °F 50.0 °F 41% 29.75 in 10.0 mi South 15.0 mph - N/A   Scattered Clouds
11:53 PM 70.0 °F 52.0 °F 53% 29.75 in 10.0 mi SSE 9.2 mph - N/A   Partly Cloudy